NOAA 16 DEB, 41054

Orbit data source: Space-Track

NOAA 16 DEB, 41054 is space debris in SSO originally from a launch on Thu, 21 Sep 2000 UTC launched from the Air Force Western Test Range (AFWTR). Debris objects in space refer to the collection of defunct objects orbiting the Earth. Examples of debris include non-operational satellites, rocket bodies, and fragments generated from explosions, collisions, or faulty payload assembly.

Loading next visibility...
Identifier
41054, 2000-055M
Orbit
SSO
Country
Flag of USUS
Related business
Manufacturer
Unknown
Mission
Spacecraft
Bus & Motor
Unknown
Mass
Unknown
Launch date (UTC)
2000-09-21 (25 years ago)
Launch vehicle
Unknown
Launch site
Air Force Western Test Range (AFWTR)
Object type
Payload
Rocket body
Debris
Shape & HBR
Unknown shape, 0.1 m
Radar Cross Section
Small (<0.1 m²)

Expand to show TLE details & history
Last TLE update: 15 hours ago

TLE from 15 hours ago
0 NOAA 16 DEB
1 41054U 00055M   25300.13492786  .00001544  00000-0  56819-3 0  9990
2 41054  99.0274 172.4505 0066025  92.5699 268.3044 14.32926654517080
Epoch: 2025-10-27T03:14Z
TLE epoch observation values (Epoch: 2025-10-27T03:14:17.767Z)
Latitude
-0°
Longitude
88.13535°
Altitude
786.598 km
Speed
7.46 km/s
True Right ascension
11h 29m 48s
True Declination
0° 00' 00"
Sunlit
Object was in daylight at epoch
Visualization orbit readout
Latitude
Unknown
Longitude
Unknown
Altitude
Unknown
Speed
Unknown
Apparent Right ascension
Unknown
Apparent Declination
Unknown
Sunlit
N/A
Visualization observer readout
Local Sidereal Time
13:15:27
Azimuth
Unknown
Elevation
Unknown
Doppler factor
Unknown
Orbital elements
Apogee altitude
826.377 km
Perigee altitude
731.866 km
Semi-major axis
7,157.259 km
Eccentricity
0.0066
Inclination
99.0274°
RAAN
172.4505°
Arg. of periapsis
92.5699°
True anomaly
267.54835°
Mean anomaly
268.3044°
Eccentric anomaly
267.92635°
Mean motion
3.58445 °/min
Orbital period
100.43 mins
BSTAR
0.00056819
Loading maneuver chart data...
Computing Atmospheric mass density...
Loading historical data...
Loading historical data...
Loading historical data...
Loading historical data...
Loading historical data...
Loading historical data...
Loading historical data...

Documentation

Showing up to 5 results
|